Location: Peterborough
(44.3091°N, 78.3197°W)
Time: 03:19:29
(UTC-04:00)

Tiros 1 - Pass Details

Date: 07 April 2023
Orbit: 627 x 661 km, 48.4° (Epoch: 09 June)

Event Time Altitude Azimuth Distance (km) Brightness Sun altitude
Rises 08:09:30 0° 289° (WNW) 2,991 10.0 14.4°
Reaches altitude 10° 08:12:10 10° 276° (W) 2,076 9.2 14.9°
Maximum altitude 08:16:05 25° 222° (SW) 1,319 8.6 15.6°
Drops below altitude 10° 08:19:58 10° 167° (SSE) 2,064 10.1 16.3°
Sets 08:22:37 0° 154° (SSE) 2,968 11.0 16.8°
